Cloud_Cover
100 100 100 100 100 100 82 95 100 100 100 100 68 100 100 100 100 99 77 3 0 0 0 12 36 60 5 46 9 5 5 2 5 5 4 6 3 1 5 63 76 74 50
100 100 100 100 100 100 51 100 74 100 100 81 28 96 99 100 100 100 100 23 2 1 0 6 5 3 0 5 27 18 36 19 5 0 2 5 5 5 5 5 4 4 3
100 100 100 100 100 100 93 100 100 100 100 100 100 100 100 100 100 100 100 100 42 5 0 5 5 5 3 0 5 5 38 34 12 5 5 5 3 1 1 7 2 2 0
100 100 100 100 100 98 100 100 100 100 100 100 100 100 99 100 100 100 100 100 100 42 2 0 0 0 2 0 0 1 13 43 24 5 5 4 17 25 83 5 0 0 5
100 100 100 97 100 98 100 100 98 100 100 100 100 100 100 100 100 100 100 100 100 70 22 0 0 3 4 38 39 0 0 0 0 3 0 0 0 0 2 0 0 1 0
100 94 99 100 100 100 100 100 100 100 100 100 100 100 100 100 100 100 100 100 100 100 95 29 32 0 0 0 0 0 0 0 0 0 0 4 1 2 0 0 0 0 0
8 95 100 100 100 100 100 100 91 100 100 100 100 100 100 100 100 95 100 100 100 100 100 100 90 13 0 0 0 0 0 0 2 0 0 0 0 5 5 2 4 2 1
9 100 100 100 100 70 91 100 100 100 100 100 96 100 100 96 100 100 100 100 97 78 100 100 100 100 22 0 0 0 0 0 0 0 2 0 0 0 0 0 0 2 0
5 100 100 48 100 100 93 100 93 99 99 100 94 97 99 64 100 100 100 98 98 53 100 100 100 100 18 0 0 0 0 0 0 0 0 0 0 0 5 5 3 0 0
24 100 89 92 64 89 100 100 100 80 100 100 25 96 100 65 100 100 100 87 100 37 98 100 100 4 0 1 8 0 0 0 0 0 0 0 0 0 4 4 0 0 0
8 100 100 96 53 49 100 100 100 100 100 100 94 84 82 80 100 100 100 94 100 7 7 82 87 1 0 0 7 41 29 0 2 0 0 0 0 0 0 2 4 0 0
3 2 95 100 87 61 100 100 100 100 100 100 100 100 100 100 100 84 100 100 93 87 3 0 0 1 0 0 0 0 0 0 0 0 0 0 0 0 0 0 0 1 0
11 5 4 6 5 5 15 5 73 100 100 100 100 100 100 100 98 47 79 74 100 18 0 0 0 9 10 4 38 1 0 0 0 0 0 0 0 0 0 0 0 0 3
93 5 4 5 4 4 23 5 5 100 97 97 100 100 100 100 100 100 100 32 15 0 0 0 0 0 13 5 18 1 4 50 100 95 56 0 0 0 0 0 0 0 0
83 16 5 4 5 5 5 5 5 45 100 100 50 17 63 20 100 100 100 67 14 8 0 0 0 0 27 90 11 88 13 95 7 5 5 5 5 0 0 0 0 0 0
100 90 87 14 0 0 5 5 6 29 100 100 100 100 100 60 2 18 64 51 0 20 4 0 0 0 87 49 18 95 100 63 1 5 4 3 4 0 0 0 0 0 0
89 62 64 86 100 87 14 25 6 5 10 57 18 53 41 57 5 2 0 0 0 0 2 0 0 0 0 2 23 61 4 16 0 0 0 0 1 14 0 2 2 0 0
49 77 84 10 42 100 18 8 11 46 47 57 94 60 5 13 19 5 0 0 0 0 31 44 67 12 0 0 0 1 4 0 1 0 0 0 3 0 0 0 5 7 46
5 5 100 53 5 57 81 10 31 6 8 5 28 5 53 7 5 5 5 0 0 3 48 100 100 96 85 0 0 0 0 0 6 29 32 17 98 73 97 14 20 20 91
0 3 8 25 5 5 5 0 0 4 22 5 5 5 5 16 5 4 5 0 4 3 100 100 100 100 23 5 5 4 0 0 0 2 0 4 22 87 84 100 99 100 80
0 0 4 0 0 0 4 4 0 0 5 5 5 5 5 83 27 1 3 2 5 5 41 9 69 86 54 46 49 18 46 5 86 83 57 78 60 15 24 77 80 100 100
0 0 5 5 2 0 0 1 0 0 0 0 0 3 4 5 46 15 5 5 5 5 70 40 46 30 18 28 5 14 50 99 100 98 61 100 98 98 99 78 38 29 63
48 8 4 2 5 0 0 0 0 0 0 0 0 0 0 5 58 5 5 5 11 5 27 63 52 12 22 79 8 9 99 17 71 34 15 100 92 18 24 5 1 5 5
100 100 96 89 88 56 1 0 4 6 0 0 0 0 0 0 1 29 5 5 15 5 100 88 100 100 86 14 5 5 58 50 5 58 88 95 100 41 8 5 5 5 5
100 100 100 100 100 75 90 73 99 85 73 18 4 0 0 0 0 0 0 6 49 41 100 100 100 100 100 95 94 19 10 23 25 23 12 8 23 69 24 20 40 96 51
100 100 100 100 100 100 100 100 100 100 100 100 86 10 0 3 2 0 0 3 3 26 38 77 31 46 97 96 100 100 100 100 97 48 5 5 86 40 22 18 91 82 7